Location: Rounton
(54.4000°N, 1.3500°W)
Time: 19:51:36
(UTC+00:00)

A-11 Canister half - Pass Details

Date: 02 December 2021
Orbit: 1516 x 1684 km, 47.2° (Epoch: 19 January)

Event Time Altitude Azimuth Distance (km) Brightness Sun altitude
Rises 07:58:52 0° 224° (SW) 4,781 11.5 -1.5°
Reaches altitude 10° 08:02:07 10° 218° (SW) 3,822 11.1 -1.2°
Maximum altitude 08:11:02 42° 152° (SSE) 2,210 10.6 -0.1°
Drops below altitude 10° 08:20:13 10° 87° (E) 3,935 11.9 0.9°
Sets 08:23:36 0° 81° (E) 4,935 12.3 1.2°
